This is the latest recevied weather packets stored in our database for station/object I1SXT-13. If no packets are shown the sender has not sent any weather packets the latest 10 day(s).
| Time | Temp. | Humidity | Pressure | Rain* | Wind** | Luminosity | Snow |
|---|---|---|---|---|---|---|---|
| 1777984168 | 19.44° C | 75% | 1012.9 hPa | 0 mm | - | - | - |
| 1777983864 | 20° C | 76% | 1013.7 hPa | 0 mm | - | - | - |
| 1777983566 | 19.44° C | 80% | 1013.8 hPa | 0 mm | - | - | - |
| 1777983270 | 18.33° C | 79% | 1013.7 hPa | 0 mm | - | - | - |
| 1777982965 | 18.89° C | 79% | 1013.6 hPa | 0 mm | - | - | - |
| 1777982668 | 19.44° C | 77% | 1012.9 hPa | 0 mm | - | - | - |
| 1777982064 | 20° C | 78% | 1013 hPa | 29.21 mm | - | - | - |
| 1777981165 | 18.89° C | 79% | 1013.4 hPa | 29.21 mm | - | - | - |
| 1777980868 | 19.44° C | 80% | 1013.2 hPa | 29.21 mm | - | - | - |
| 1777980564 | 18.89° C | 81% | 1013.7 hPa | 29.21 mm | - | - | - |
| 1777980267 | 18.89° C | 81% | 1014 hPa | 29.21 mm | - | - | - |
| 1777979970 | 18.89° C | 80% | 1013.1 hPa | 29.21 mm | - | - | - |
| 1777979666 | 18.89° C | 79% | 1013.4 hPa | 29.21 mm | - | - | - |
| 1777979368 | 19.44° C | 80% | 1014 hPa | 29.21 mm | - | - | - |
| 1777979064 | 19.44° C | 79% | 1012.7 hPa | 29.21 mm | - | - | - |
| 1777978767 | 19.44° C | 81% | 1013.8 hPa | 29.21 mm | - | - | - |
| 1777978470 | 17.78° C | 82% | 1013.7 hPa | 29.21 mm | - | - | - |
| 1777978166 | 18.33° C | 83% | 1012.9 hPa | 29.21 mm | - | - | - |
| 1777977869 | 18.33° C | 85% | 1013.3 hPa | 29.21 mm | - | - | - |
| 1777977267 | 17.78° C | 84% | 1013.7 hPa | 29.21 mm | - | - | - |
| 1777976970 | 18.89° C | 83% | 1012.6 hPa | 29.21 mm | - | - | - |
| 1777976666 | 18.89° C | 82% | 1012.9 hPa | 29.21 mm | - | - | - |
| 1777976369 | 18.89° C | 84% | 1013.2 hPa | 29.21 mm | - | - | - |
| 1777976065 | 18.33° C | 84% | 1013 hPa | 29.21 mm | - | - | - |
| 1777975767 | 18.33° C | 80% | 1013.2 hPa | 29.21 mm | - | - | - |
* Rain since midnight (hover to see other rain measurements)
** Current wind speed in m/s (hover to see current wind gust speed)